Location: City of Moscow
(46.7306°N, 116.9989°W)
Time: 04:35:09
(UTC+00:00)

IRS-P3 - Pass Details

Date: 11 December 2025
Orbit: 810 x 816 km, 99.0° (Epoch: 13 January)

Event Time Altitude Azimuth Distance (km) Brightness Sun altitude
Rises 14:42:39 0° 16° (NNE) 3,343 7.2 -6.8°
Reaches altitude 10° 14:45:00 10° 18° (NNE) 2,407 6.5 -6.4°
Maximum altitude 14:50:20 75° 104° (ESE) 842 4.4 -5.6°
Drops below altitude 10° 14:55:37 10° 190° (S) 2,390 6.8 -4.8°
Sets 14:57:57 0° 192° (SSW) 3,317 7.5 -4.5°
